Location: Gro� Glienicke
(52.4675°N, 13.1079°E)
Time: 17:55:57
(UTC+00:00)

Nadezhda 3 Rocket - Pass Details

Date: 06 July 2020
Orbit: 956 x 1000 km, 82.9° (Epoch: 13 August)

Event Time Altitude Azimuth Distance (km) Brightness Sun altitude
Rises 21:41:10 0° 348° (NNW) 3,737 9.0 -12.4°
Reaches altitude 10° 21:43:42 10° 348° (NNW) 2,782 7.9 -12.5°
Maximum altitude 21:50:06 78° 264° (W) 1,023 4.1 -12.8°
Enters shadow 21:55:16 16° 179° (S) 2,328 5.4 -13.1°
